[[{"header":{"parameterUnit":"m.s-1","parameterCategory":2,"la1":30.2991,"la2":30.254,"lo1":-89.0895,"lo2":-89.0444,"dy":0.0017,"dx":0.0017,"nx":28,"ny":28,"refTime":"2024-07-20T09:00:00:Z","depth":"0","parameterNumber":2,"parameterNumberName":"U-component_of_CURRENTS"},"data":[0,0,0,0,0,0,0,0,0,0,0,0,0,0,0,0,0,0,0,0,0,0,0,0,0,0,0,0,0,0,0,0,0,0,0,0,0,0,0,0,0,0,0,0,0,0,0,0,0,0,0,0,0,0,0,0,0,0,-0.2156,-0.2156,0,-0.2164,-0.2164,-0.2164,-0.2127,-0.2126,-0.2126,-0.2125,-0.2069,-0.2069,-0.2068,0,0,0,0,0,0,0,0,0,0,0,0,0,-0.213,-0.213,-0.2156,-0.2156,-0.2156,-0.2164,-0.2164,-0.2164,-0.2127,-0.2126,-0.2125,-0.2124,-0.207,-0.2069,-0.2068,0,0,0,0,0,0,0,0,0,0,0,0,0,-0.2138,-0.213,-0.2156,-0.2141,-0.214,-0.2164,-0.2164,-0.2164,-0.2128,-0.2126,-0.2125,-0.2124,-0.207,-0.2069,-0.2068,-0.2088,0,0,-0.2065,-0.2064,0,0,0,0,0,0,0,0,-0.2137,-0.2139,-0.2143,-0.2142,-0.2141,-0.2145,-0.2134,-0.2136,-0.2128,-0.213,-0.2125,-0.2123,-0.2091,-0.2088,-0.2091,-0.2085,-0.2083,-0.2065,-0.2064,-0.2064,-0.2063,0,0,0,0,0,0,0,-0.2137,-0.2138,-0.2157,-0.2143,-0.2142,-0.2141,-0.214,-0.2135,-0.2115,-0.213,-0.2128,-0.2132,-0.209,-0.2092,-0.2089,-0.2082,-0.2065,-0.2064,-0.2063,-0.2063,-0.209,-0.2091,0,0,0,0,0,0,-0.2141,-0.2138,-0.2157,-0.2157,-0.2138,-0.2142,-0.2142,-0.2143,-0.2116,-0.2112,-0.2133,-0.2131,-0.2094,-0.209,-0.2087,-0.2102,-0.2064,-0.2063,-0.2062,-0.2088,-0.209,-0.2091,0,0,0,0,0,0,-0.214,-0.2142,-0.2156,-0.2149,-0.2151,-0.2144,-0.2147,-0.2144,-0.2139,-0.212,-0.2114,-0.213,-0.2093,-0.2088,-0.2089,-0.21,-0.2062,-0.2061,-0.2087,-0.2089,-0.2091,-0.2137,0,0,0,0,0,0,-0.2139,-0.2142,-0.214,-0.215,-0.2152,-0.2173,-0.2148,-0.2145,-0.2146,-0.2142,-0.2116,-0.211,-0.2092,-0.2091,-0.2088,-0.2098,-0.2061,-0.2085,-0.2088,-0.209,-0.2134,-0.214,-0.2146,0,0,0,0,0,-0.2138,-0.2144,-0.214,-0.2142,-0.2151,-0.2174,-0.2175,-0.2164,-0.2147,-0.2153,-0.2139,-0.211,-0.2104,-0.2091,-0.2087,-0.2097,-0.2084,-0.2087,-0.209,-0.2131,-0.2139,-0.2146,0,0,0,0,0,0,-0.2125,-0.2141,-0.2137,-0.2145,-0.216,-0.2168,-0.2171,-0.2167,-0.2162,-0.2151,-0.2128,-0.2122,-0.2127,-0.2112,-0.2098,-0.2115,-0.2089,-0.2092,-0.2122,-0.2129,-0.2135,-0.2131,-0.206,0,0,0,0,0,-0.2126,-0.2132,-0.2151,-0.2154,-0.2164,-0.2168,-0.2173,-0.217,-0.2171,-0.2166,-0.2152,-0.214,-0.214,-0.2133,-0.2129,-0.2138,-0.2105,-0.2144,-0.215,-0.2155,-0.2151,-0.213,-0.2133,-0.2101,-0.2101,-0.2101,0,0,-0.212,-0.2129,-0.2131,-0.2152,-0.2158,-0.2184,-0.2166,-0.2179,-0.2195,-0.2162,-0.217,-0.216,-0.2148,-0.2159,-0.216,-0.2145,-0.2145,-0.2158,-0.2163,-0.2156,-0.2133,-0.2136,-0.2138,-0.2103,-0.2103,-0.2102,0,0,-0.2123,-0.2123,-0.2137,-0.2159,-0.2178,-0.2188,-0.2194,-0.2209,-0.2207,-0.2224,-0.2205,-0.2202,-0.2202,-0.2195,-0.2192,-0.2231,-0.218,-0.2231,-0.2253,-0.2233,-0.2235,-0.2237,-0.2186,-0.2182,-0.2232,-0.2232,-0.2232,0,-0.2116,-0.2134,-0.2144,-0.2173,-0.2188,-0.2193,-0.2219,-0.2231,-0.2242,-0.224,-0.2231,-0.2228,-0.2219,-0.2226,-0.2244,-0.2242,-0.2212,-0.2224,-0.2239,-0.224,-0.224,-0.2188,-0.2184,-0.2234,-0.2234,-0.2234,-0.2233,0,-0.2137,-0.2156,-0.2168,-0.2203,-0.2225,-0.2245,-0.2273,-0.2283,-0.2281,-0.2285,-0.2288,-0.2281,-0.2271,-0.2279,-0.2275,-0.228,-0.225,-0.2249,-0.2216,-0.2246,-0.219,-0.2184,-0.2238,-0.2237,-0.2236,-0.2236,0,0,-0.21,-0.2169,-0.2169,-0.2192,-0.2241,-0.2257,-0.2293,-0.2316,-0.2318,-0.233,-0.2327,-0.2342,-0.2321,-0.2318,-0.2308,-0.23,-0.2281,-0.2281,-0.2279,-0.2222,-0.2212,-0.209,-0.2071,-0.2283,-0.2283,-0.2282,-0.2166,0,-0.2107,-0.2159,-0.2194,-0.2237,-0.2265,-0.2294,-0.2323,-0.2344,-0.235,-0.2352,-0.2345,-0.2341,-0.2342,-0.2331,-0.2327,-0.2298,-0.2271,-0.2311,-0.2199,-0.2195,-0.2076,-0.2063,-0.1942,-0.1819,-0.216,-0.2159,-0.2158,0,-0.2107,-0.2142,-0.2188,-0.2247,-0.226,-0.2286,-0.2311,-0.2342,-0.2357,-0.2359,-0.2356,-0.2347,-0.2342,-0.2335,-0.2286,-0.2311,-0.2262,-0.2235,-0.223,-0.2094,-0.2063,-0.1848,-0.1796,-0.1787,-0.2149,-0.2149,-0.215,0,-0.2057,-0.2132,-0.216,-0.2184,-0.2256,-0.2268,-0.2298,-0.2328,-0.2345,-0.2353,-0.2353,-0.2344,-0.2322,-0.2291,-0.2238,-0.2262,-0.2163,-0.2184,-0.2018,-0.2008,-0.187,-0.1847,-0.1785,-0.2128,-0.2128,-0.2129,-0.2129,0,-0.2042,-0.2058,-0.2136,-0.2149,-0.217,-0.2235,-0.2248,-0.2276,-0.2312,-0.2288,-0.2342,-0.2306,-0.2312,-0.226,-0.2222,-0.2084,-0.214,-0.2002,-0.1968,-0.1881,-0.1862,-0.1819,-0.1856,-0.2124,-0.2125,-0.2126,-0.2127,0,-0.1966,-0.2027,-0.2056,-0.2126,-0.2146,-0.2152,-0.222,-0.2232,-0.2277,-0.2247,-0.2248,-0.2271,-0.2174,-0.2154,-0.2073,-0.2029,-0.1885,-0.1869,-0.1749,-0.1702,-0.1535,-0.1579,-0.1482,-0.1443,-0.1665,-0.1661,-0.1658,0,-0.1928,-0.1938,-0.2008,-0.2021,-0.2046,-0.208,-0.2106,-0.2188,-0.2194,-0.2185,-0.2156,-0.2095,-0.1955,-0.1826,-0.1759,-0.1636,-0.1691,-0.1483,-0.1507,-0.1485,-0.1511,-0.1579,-0.1561,-0.1341,-0.1335,-0.1331,-0.1327,0,-0.1835,-0.1859,-0.1881,-0.19,-0.193,-0.1931,-0.1965,-0.195,-0.1993,-0.1952,-0.1806,-0.1694,-0.1615,-0.1422,-0.1347,-0.1298,-0.1442,-0.1382,-0.1401,-0.1273,-0.1301,-0.126,-0.1455,-0.1287,-0.1291,-0.1294,-0.1296,-0.1298,-0.1743,-0.1724,-0.1743,-0.1728,-0.1753,-0.1655,-0.1576,-0.1586,-0.1474,-0.1275,-0.1339,-0.1049,-0.109,-0.0942,-0.097,-0.0973,-0.1087,-0.0954,-0.1012,-0.1085,-0.1039,-0.1122,-0.0896,-0.0898,-0.09,-0.0901,-0.0902,0,-0.159,-0.1567,-0.1563,-0.1495,-0.1403,-0.1472,-0.1387,-0.1252,-0.0992,-0.0835,-0.0613,-0.0333,-0.0314,-0.0461,-0.0598,-0.0627,-0.0692,-0.0659,-0.0754,-0.0757,-0.0838,-0.0815,-0.051,-0.051,-0.051,-0.051,-0.051,-0.051,-0.1507,-0.1416,-0.1378,-0.112,-0.1071,-0.0865,-0.0743,-0.0566,-0.0408,0.0016,0.0275,0.0388,0.0132,-0.0229,-0.0467,-0.0504,-0.0571,-0.0532,-0.0621,-0.0713,-0.0747,-0.078,-0.0766,-0.0457,-0.0457,-0.0492,-0.0493,-0.0493]},{"header":{"parameterUnit":"m.s-1","parameterCategory":2,"la1":30.2991,"la2":30.254,"lo1":-89.0895,"lo2":-89.0444,"dy":0.0017,"dx":0.0017,"nx":28,"ny":28,"refTime":"2024-07-20T09:00:00:Z","depth":"0","parameterNumber":3,"parameterNumberName":"V-component_of_CURRENTS"},"data":[0,0,0,0,0,0,0,0,0,0,0,0,0,0,0,0,0,0,0,0,0,0,0,0,0,0,0,0,0,0,0,0,0,0,0,0,0,0,0,0,0,0,0,0,0,0,0,0,0,0,0,0,0,0,0,0,0,0,-0.026,-0.0259,0,-0.0202,-0.0201,-0.02,-0.0152,-0.0152,-0.0151,-0.0151,-0.0059,-0.0057,-0.0055,0,0,0,0,0,0,0,0,0,0,0,0,0,-0.0287,-0.0287,-0.026,-0.0259,-0.0258,-0.0202,-0.0201,-0.02,-0.0152,-0.0152,-0.0151,-0.0151,-0.006,-0.0057,-0.0055,0,0,0,0,0,0,0,0,0,0,0,0,0,-0.0257,-0.0287,-0.026,-0.0228,-0.0225,-0.0202,-0.0201,-0.02,-0.0153,-0.0152,-0.0151,-0.0151,-0.006,-0.0058,-0.0055,-0.0049,0,0,-0.0045,-0.0044,0,0,0,0,0,0,0,0,-0.0258,-0.0256,-0.0234,-0.023,-0.0227,-0.0184,-0.0177,-0.0148,-0.0153,-0.0179,-0.0151,-0.015,-0.0098,-0.0092,-0.0083,-0.0045,-0.0041,-0.0045,-0.0043,-0.0042,-0.0041,0,0,0,0,0,0,0,-0.0261,-0.0258,-0.0236,-0.0233,-0.0229,-0.0202,-0.0198,-0.0171,-0.0142,-0.0177,-0.0174,-0.0168,-0.0096,-0.0086,-0.008,-0.004,-0.0045,-0.0042,-0.004,-0.0039,0.003,0.003,0,0,0,0,0,0,-0.0272,-0.026,-0.0238,-0.0234,-0.0242,-0.0203,-0.0197,-0.0198,-0.0143,-0.0135,-0.0169,-0.0166,-0.0091,-0.0084,-0.0077,-0.0065,-0.0042,-0.0039,-0.0037,0.003,0.003,0.003,0,0,0,0,0,0,-0.0273,-0.0271,-0.024,-0.0246,-0.024,-0.0203,-0.0204,-0.0197,-0.0186,-0.0138,-0.0128,-0.0165,-0.009,-0.0081,-0.0054,-0.0061,-0.0038,-0.0035,0.003,0.003,0.003,-0.0043,0,0,0,0,0,0,-0.0274,-0.0272,-0.0278,-0.0247,-0.024,-0.0235,-0.0205,-0.0196,-0.0184,-0.018,-0.0131,-0.0122,-0.0089,-0.0058,-0.0051,-0.0056,-0.0032,0.003,0.003,0.003,-0.0041,-0.0046,-0.005,0,0,0,0,0,-0.0275,-0.0291,-0.0279,-0.0276,-0.025,-0.0235,-0.023,-0.02,-0.0185,-0.0187,-0.015,-0.0124,-0.0052,-0.0056,-0.0047,-0.0052,0.003,0.003,0.003,-0.0039,-0.0045,-0.005,0,0,0,0,0,0,-0.0309,-0.0287,-0.0273,-0.0282,-0.0263,-0.0228,-0.0229,-0.0207,-0.018,-0.0175,-0.0126,-0.0115,-0.0095,-0.0061,-0.0067,-0.003,-0.0006,-0.0004,-0.0061,-0.0066,-0.0071,-0.008,-0.003,0,0,0,0,0,-0.032,-0.0325,-0.0297,-0.0304,-0.0298,-0.0264,-0.0255,-0.0235,-0.0206,-0.0194,-0.0158,-0.0118,-0.0088,-0.0068,-0.0038,-0.002,0.0029,-0.0014,-0.0019,-0.0023,-0.0023,0.0041,0.0043,0.003,0.003,0.003,0,0,-0.0334,-0.0324,-0.0326,-0.0311,-0.0294,-0.0296,-0.0257,-0.025,-0.0248,-0.0189,-0.0175,-0.0137,-0.0087,-0.0068,-0.0055,-0.004,0.0006,-0.0023,-0.0027,-0.0025,0.0042,0.0043,0.0044,0.003,0.003,0.003,0,0,-0.0374,-0.0358,-0.0378,-0.0366,-0.0347,-0.0324,-0.0325,-0.0294,-0.0275,-0.0258,-0.0214,-0.0178,-0.0136,-0.0096,-0.0072,-0.0081,-0.0024,-0.0073,-0.0099,-0.0038,-0.0036,-0.0034,0.0028,0.0036,-0.0071,-0.0071,-0.0071,0,-0.0394,-0.0412,-0.0381,-0.0396,-0.0389,-0.0342,-0.0358,-0.0335,-0.0297,-0.0276,-0.0265,-0.0184,-0.0148,-0.0107,-0.0113,-0.0092,-0.0047,-0.0087,-0.0044,-0.0041,-0.0038,0.0026,0.0035,-0.0074,-0.0074,-0.0074,-0.0073,0,-0.0445,-0.0458,-0.0469,-0.0469,-0.0457,-0.0463,-0.0426,-0.0409,-0.0378,-0.0344,-0.03,-0.0245,-0.0191,-0.0177,-0.0151,-0.011,-0.0082,-0.0063,-0.0035,-0.0041,0.0026,0.0038,-0.0079,-0.0078,-0.0077,-0.0076,0,0,-0.0495,-0.0505,-0.051,-0.0517,-0.0495,-0.0489,-0.0481,-0.0449,-0.0428,-0.0388,-0.0355,-0.0304,-0.0258,-0.0227,-0.018,-0.013,-0.0075,-0.0095,-0.009,-0.0041,0.0067,0.0121,0.014,-0.0049,-0.0047,-0.0046,0.0104,0,-0.0546,-0.0594,-0.0577,-0.0605,-0.0619,-0.0568,-0.0558,-0.0518,-0.0471,-0.0426,-0.0356,-0.0307,-0.0281,-0.0248,-0.0199,-0.01,-0.0047,-0.0117,0.0073,0.0079,0.0122,0.0154,0.0191,0.0331,0.0116,0.0118,0.0119,0,-0.0605,-0.0624,-0.067,-0.0661,-0.066,-0.0662,-0.0616,-0.0601,-0.0523,-0.0481,-0.0417,-0.035,-0.0269,-0.0248,-0.0088,-0.0133,-0.0045,0.0029,0.0037,0.0123,0.0155,0.0305,0.0361,0.0444,0.0138,0.0136,0.0135,0,-0.0655,-0.0685,-0.072,-0.0721,-0.0706,-0.0702,-0.0685,-0.0619,-0.0588,-0.0507,-0.0456,-0.0362,-0.0283,-0.018,-0.0027,-0.0053,0.0159,0.0148,0.0281,0.0286,0.0374,0.0384,0.0528,0.0259,0.0258,0.0258,0.0257,0,-0.0713,-0.0738,-0.0747,-0.0764,-0.0784,-0.0751,-0.0743,-0.0704,-0.0633,-0.0549,-0.0486,-0.0379,-0.026,-0.0118,-0.0016,0.0185,0.0178,0.0291,0.0335,0.0349,0.0355,0.0477,0.0494,0.0264,0.0262,0.0261,0.026,0,-0.0761,-0.0775,-0.081,-0.0812,-0.0813,-0.0825,-0.079,-0.0753,-0.069,-0.0576,-0.0541,-0.038,-0.0179,-0.0052,0.0152,0.0232,0.0468,0.0463,0.0471,0.0513,0.0685,0.0695,0.0884,0.0975,0.0623,0.0625,0.0627,0,-0.0788,-0.0816,-0.0849,-0.0858,-0.0861,-0.0869,-0.0844,-0.0794,-0.0709,-0.0531,-0.0436,-0.0257,-0.0034,0.0248,0.0376,0.0562,0.0611,0.0701,0.065,0.0719,0.0763,0.0751,0.0812,0.0741,0.0743,0.0746,0.0747,0,-0.0821,-0.0837,-0.0861,-0.0871,-0.0867,-0.0853,-0.0791,-0.0739,-0.06,-0.0472,-0.0191,-0.0016,0.0237,0.0479,0.0644,0.074,0.0771,0.0753,0.0833,0.088,0.0871,0.097,0.0611,0.0767,0.0765,0.0764,0.0763,0.0762,-0.0826,-0.0836,-0.084,-0.084,-0.0831,-0.0744,-0.0687,-0.0563,-0.04,-0.0113,0.0042,0.0361,0.0638,0.0883,0.0916,0.1013,0.0966,0.1062,0.1075,0.1061,0.1132,0.0814,0.1008,0.1007,0.1007,0.1006,0.1006,0,-0.0746,-0.075,-0.078,-0.0738,-0.0676,-0.069,-0.0555,-0.044,-0.0181,0.0062,0.0367,0.0861,0.1064,0.1173,0.129,0.1341,0.1328,0.1366,0.1353,0.1406,0.1147,0.1135,0.1355,0.1355,0.1355,0.1354,0.1354,0.1354,-0.0695,-0.0661,-0.0664,-0.0549,-0.0521,-0.0378,-0.028,-0.0116,0.0075,0.0502,0.0815,0.1091,0.1395,0.1518,0.1579,0.1582,0.1688,0.1636,0.1708,0.15,0.1471,0.1444,0.1438,0.1718,0.1718,0.1969,0.1972,0.1973]}],[{"header":{"parameterUnit":"m.s-1","parameterCategory":2,"la1":30.2991,"la2":30.254,"lo1":-89.0895,"lo2":-89.0444,"dy":0.0017,"dx":0.0017,"nx":28,"ny":28,"refTime":"2024-07-20T09:00:00:Z","depth":"2","parameterNumber":2,"parameterNumberName":"U-component_of_CURRENTS"},"data":[0,0,0,0,0,0,0,0,0,0,0,0,0,0,0,0,0,0,0,0,0,0,0,0,0,0,0,0,0,0,0,0,0,0,0,0,0,0,0,0,0,0,0,0,0,0,0,0,0,0,0,0,0,0,0,0,0,0,-0.2078,-0.2078,0,-0.2093,-0.2093,-0.2093,-0.2066,-0.2065,-0.2065,-0.2064,-0.2026,-0.2025,-0.2025,0,0,0,0,0,0,0,0,0,0,0,0,0,-0.2039,-0.204,-0.2078,-0.2078,-0.2078,-0.2093,-0.2093,-0.2093,-0.2066,-0.2065,-0.2064,-0.2064,-0.2026,-0.2025,-0.2025,0,0,0,0,0,0,0,0,0,0,0,0,0,-0.2054,-0.204,-0.2077,-0.2068,-0.2067,-0.2093,-0.2093,-0.2093,-0.2066,-0.2065,-0.2064,-0.2063,-0.2026,-0.2026,-0.2025,-0.2046,0,0,-0.2024,-0.2024,0,0,0,0,0,0,0,0,-0.2053,-0.2055,-0.2069,-0.2068,-0.2068,-0.2078,-0.2066,-0.2075,-0.2067,-0.2065,-0.2064,-0.2062,-0.204,-0.2039,-0.2042,-0.2044,-0.2042,-0.2024,-0.2023,-0.2023,-0.2023,0,0,0,0,0,0,0,-0.2052,-0.2055,-0.2082,-0.2069,-0.2069,-0.2068,-0.2068,-0.2068,-0.2057,-0.2065,-0.2063,-0.2068,-0.2039,-0.2043,-0.2041,-0.2042,-0.2024,-0.2023,-0.2023,-0.2023,-0.2059,-0.206,0,0,0,0,0,0,-0.2054,-0.2054,-0.2082,-0.2083,-0.2059,-0.207,-0.207,-0.2075,-0.2058,-0.2055,-0.2069,-0.2067,-0.2044,-0.2042,-0.204,-0.2061,-0.2023,-0.2023,-0.2023,-0.2058,-0.2059,-0.206,0,0,0,0,0,0,-0.2053,-0.2057,-0.2081,-0.207,-0.2073,-0.2072,-0.2077,-0.2076,-0.2076,-0.2062,-0.2057,-0.207,-0.2043,-0.204,-0.2047,-0.2059,-0.2023,-0.2022,-0.2056,-0.2058,-0.206,-0.2104,0,0,0,0,0,0,-0.2052,-0.2056,-0.2058,-0.207,-0.2074,-0.21,-0.2078,-0.2077,-0.2082,-0.2079,-0.2062,-0.2057,-0.2042,-0.2048,-0.2046,-0.2058,-0.2022,-0.2055,-0.2057,-0.2059,-0.2101,-0.2107,-0.2112,0,0,0,0,0,-0.2051,-0.206,-0.2058,-0.2062,-0.2077,-0.2101,-0.2103,-0.2096,-0.2083,-0.2091,-0.2082,-0.2057,-0.2061,-0.2049,-0.2047,-0.2058,-0.2053,-0.2056,-0.2059,-0.2098,-0.2106,-0.2112,0,0,0,0,0,0,-0.2041,-0.2059,-0.2057,-0.2069,-0.2085,-0.2097,-0.2102,-0.2101,-0.2101,-0.2094,-0.2075,-0.2071,-0.2081,-0.2069,-0.2056,-0.2077,-0.2053,-0.2055,-0.2083,-0.209,-0.2096,-0.209,-0.2022,0,0,0,0,0,-0.2043,-0.2052,-0.2072,-0.208,-0.209,-0.2097,-0.2104,-0.2104,-0.2108,-0.2107,-0.2098,-0.2091,-0.2093,-0.209,-0.209,-0.2103,-0.2074,-0.211,-0.2115,-0.212,-0.2116,-0.2099,-0.2102,-0.2069,-0.2069,-0.2069,0,0,-0.204,-0.2051,-0.2055,-0.2079,-0.2087,-0.2112,-0.2098,-0.2113,-0.213,-0.2103,-0.2117,-0.211,-0.2103,-0.2117,-0.212,-0.2106,-0.2113,-0.2124,-0.2128,-0.2121,-0.2102,-0.2105,-0.2108,-0.2071,-0.2071,-0.2071,0,0,-0.2046,-0.2052,-0.2066,-0.2087,-0.2109,-0.2119,-0.2126,-0.2143,-0.2145,-0.2165,-0.2149,-0.2151,-0.2157,-0.2153,-0.2152,-0.219,-0.2145,-0.2192,-0.2212,-0.2197,-0.2199,-0.22,-0.2156,-0.2154,-0.2193,-0.2193,-0.2193,0,-0.2043,-0.2062,-0.2074,-0.2101,-0.2117,-0.2125,-0.2149,-0.2163,-0.2179,-0.2181,-0.2174,-0.218,-0.2174,-0.2185,-0.2201,-0.22,-0.2175,-0.2185,-0.2202,-0.2203,-0.2204,-0.2159,-0.2155,-0.2195,-0.2195,-0.2195,-0.2194,0,-0.2064,-0.2085,-0.2097,-0.2131,-0.2153,-0.2175,-0.2201,-0.2215,-0.2217,-0.2225,-0.2234,-0.223,-0.2227,-0.2234,-0.2231,-0.2238,-0.2212,-0.2211,-0.2181,-0.221,-0.216,-0.2156,-0.2199,-0.2198,-0.2197,-0.2196,0,0,-0.2036,-0.21,-0.21,-0.2122,-0.217,-0.2185,-0.2222,-0.2248,-0.2255,-0.2271,-0.2274,-0.2291,-0.2276,-0.2274,-0.2266,-0.2259,-0.2245,-0.2242,-0.224,-0.219,-0.2187,-0.2087,-0.2072,-0.2248,-0.2247,-0.2247,-0.2146,0,-0.2044,-0.2093,-0.2125,-0.2166,-0.2193,-0.2222,-0.2253,-0.2277,-0.2288,-0.2296,-0.2293,-0.2295,-0.2296,-0.2289,-0.2286,-0.226,-0.2236,-0.227,-0.2174,-0.217,-0.2071,-0.2065,-0.1912,-0.1803,-0.2141,-0.214,-0.214,0,-0.2048,-0.208,-0.2123,-0.218,-0.2192,-0.2219,-0.225,-0.228,-0.2303,-0.2309,-0.2313,-0.2307,-0.2305,-0.2297,-0.2255,-0.2277,-0.2233,-0.2207,-0.2203,-0.2089,-0.2061,-0.1832,-0.1781,-0.2131,-0.2132,-0.2133,-0.2133,0,-0.2006,-0.2074,-0.2103,-0.2125,-0.2193,-0.2208,-0.2238,-0.2273,-0.2289,-0.2308,-0.2309,-0.2309,-0.2291,-0.2265,-0.2218,-0.2236,-0.2153,-0.2167,-0.2027,-0.2018,-0.1857,-0.1834,-0.2119,-0.2119,-0.2119,-0.2119,-0.212,0,-0.1995,-0.2012,-0.2083,-0.2097,-0.2118,-0.2181,-0.2198,-0.2228,-0.2266,-0.227,-0.2302,-0.2285,-0.2284,-0.2241,-0.2207,-0.2089,-0.2137,-0.2014,-0.1985,-0.1867,-0.1847,-0.2115,-0.2116,-0.2116,-0.2116,-0.2117,-0.2118,0,-0.1929,-0.1986,-0.2012,-0.2079,-0.2098,-0.2104,-0.2166,-0.2178,-0.2229,-0.2231,-0.2236,-0.2255,-0.218,-0.2151,-0.2084,-0.2045,-0.1966,-0.1908,-0.1756,-0.171,-0.1843,-0.1848,-0.174,-0.1735,-0.1732,-0.1729,-0.1726,0,-0.1897,-0.1908,-0.1968,-0.1976,-0.1999,-0.2031,-0.2052,-0.2133,-0.2147,-0.2195,-0.218,-0.2135,-0.2073,-0.194,-0.1821,-0.1701,-0.1813,-0.1532,-0.1541,-0.1821,-0.1804,-0.1814,-0.1824,-0.1339,-0.1334,-0.1329,-0.1326,0,-0.1812,-0.1832,-0.1849,-0.1865,-0.1886,-0.1909,-0.1947,-0.196,-0.2043,-0.2058,-0.2048,-0.2015,-0.1864,-0.166,-0.1507,-0.1433,-0.1546,-0.1433,-0.1752,-0.1466,-0.1437,-0.1423,-0.1446,-0.1285,-0.1289,-0.1292,-0.1294,-0.1296,-0.1723,-0.1707,-0.1724,-0.1725,-0.1751,-0.1745,-0.172,-0.1775,-0.1777,-0.1761,-0.1846,-0.1736,-0.1686,-0.1333,-0.1217,-0.1092,-0.1203,-0.1182,-0.1199,-0.122,-0.1199,-0.1166,-0.0957,-0.0959,-0.0961,-0.0962,-0.0964,0,-0.1593,-0.1585,-0.1583,-0.157,-0.1534,-0.1598,-0.1611,-0.1566,-0.152,-0.1534,-0.1515,-0.1325,-0.1156,-0.108,-0.0805,-0.0756,-0.0774,-0.0741,-0.0784,-0.0822,-0.0857,-0.0822,-0.0477,-0.0476,-0.0475,-0.0474,0,0,-0.152,-0.1459,-0.1455,-0.1338,-0.1337,-0.1239,-0.1217,-0.1192,-0.1171,-0.1095,-0.1038,-0.1117,-0.1084,-0.082,-0.0724,-0.0558,-0.0697,-0.0516,-0.0901,-0.0992,-0.1026,-0.1094,-0.108,0,0,0,0,0]},{"header":{"parameterUnit":"m.s-1","parameterCategory":2,"la1":30.2991,"la2":30.254,"lo1":-89.0895,"lo2":-89.0444,"dy":0.0017,"dx":0.0017,"nx":28,"ny":28,"refTime":"2024-07-20T09:00:00:Z","depth":"2","parameterNumber":3,"parameterNumberName":"V-component_of_CURRENTS"},"data":[0,0,0,0,0,0,0,0,0,0,0,0,0,0,0,0,0,0,0,0,0,0,0,0,0,0,0,0,0,0,0,0,0,0,0,0,0,0,0,0,0,0,0,0,0,0,0,0,0,0,0,0,0,0,0,0,0,0,-0.0293,-0.0292,0,-0.0233,-0.0232,-0.0232,-0.019,-0.019,-0.0189,-0.0189,-0.0102,-0.01,-0.0098,0,0,0,0,0,0,0,0,0,0,0,0,0,-0.0336,-0.0335,-0.0293,-0.0292,-0.0291,-0.0233,-0.0232,-0.0231,-0.019,-0.019,-0.0189,-0.0189,-0.0103,-0.01,-0.0098,0,0,0,0,0,0,0,0,0,0,0,0,0,-0.0301,-0.0335,-0.0293,-0.0264,-0.0261,-0.0233,-0.0232,-0.0231,-0.019,-0.019,-0.0189,-0.0189,-0.0104,-0.0101,-0.0098,-0.0087,0,0,-0.0088,-0.0087,0,0,0,0,0,0,0,0,-0.0303,-0.0299,-0.0269,-0.0266,-0.0262,-0.0219,-0.0215,-0.0182,-0.019,-0.0217,-0.0189,-0.0189,-0.0139,-0.0133,-0.0123,-0.0083,-0.008,-0.0088,-0.0086,-0.0085,-0.0084,0,0,0,0,0,0,0,-0.0305,-0.0301,-0.0269,-0.0268,-0.0264,-0.0242,-0.0237,-0.0209,-0.018,-0.0214,-0.0211,-0.0205,-0.0137,-0.0126,-0.012,-0.0078,-0.0088,-0.0085,-0.0083,-0.0082,-0.0008,-0.0008,0,0,0,0,0,0,-0.0315,-0.0304,-0.0271,-0.0267,-0.0282,-0.0242,-0.0236,-0.0233,-0.0181,-0.0173,-0.0206,-0.0204,-0.0131,-0.0124,-0.0117,-0.0098,-0.0085,-0.0082,-0.008,-0.0008,-0.0008,-0.0008,0,0,0,0,0,0,-0.0317,-0.0313,-0.0273,-0.0284,-0.0277,-0.0242,-0.0239,-0.0232,-0.0221,-0.0175,-0.0166,-0.0202,-0.0131,-0.0121,-0.0093,-0.0095,-0.0081,-0.0078,-0.0008,-0.0008,-0.0008,-0.0063,0,0,0,0,0,0,-0.0318,-0.0314,-0.0318,-0.0285,-0.0277,-0.0263,-0.0239,-0.0231,-0.0218,-0.0215,-0.0169,-0.016,-0.013,-0.0098,-0.009,-0.009,-0.0075,-0.0008,-0.0008,-0.0008,-0.0061,-0.0064,-0.0067,0,0,0,0,0,-0.032,-0.0328,-0.0318,-0.0314,-0.0283,-0.0263,-0.0257,-0.023,-0.0219,-0.0218,-0.0184,-0.0162,-0.0091,-0.0096,-0.0086,-0.0086,-0.0009,-0.0008,-0.0008,-0.006,-0.0064,-0.0067,0,0,0,0,0,0,-0.0349,-0.0324,-0.0312,-0.0312,-0.0292,-0.0256,-0.0254,-0.0235,-0.0209,-0.0206,-0.0162,-0.0151,-0.0128,-0.0098,-0.0105,-0.0062,-0.0045,-0.0043,-0.0087,-0.0091,-0.0094,-0.0103,-0.0073,0,0,0,0,0,-0.0358,-0.0358,-0.0328,-0.0329,-0.0322,-0.0289,-0.0279,-0.0261,-0.0232,-0.0221,-0.0187,-0.015,-0.012,-0.0099,-0.0071,-0.0047,-0.0011,-0.0039,-0.0042,-0.0045,-0.0045,0.0009,0.001,-0.0007,-0.0007,-0.0007,0,0,-0.0369,-0.0356,-0.0355,-0.0335,-0.0318,-0.0314,-0.0282,-0.0272,-0.0264,-0.0215,-0.0197,-0.0164,-0.0117,-0.0093,-0.0079,-0.0067,-0.0021,-0.0045,-0.0048,-0.0046,0.0009,0.0011,0.0012,-0.0007,-0.0007,-0.0007,0,0,-0.0397,-0.0381,-0.0393,-0.0378,-0.0358,-0.0336,-0.0336,-0.0303,-0.0285,-0.0265,-0.0227,-0.0192,-0.0149,-0.0111,-0.0087,-0.0088,-0.0045,-0.0081,-0.0098,-0.0046,-0.0044,-0.0042,0.0001,0.0007,-0.0076,-0.0077,-0.0077,0,-0.0414,-0.0422,-0.0393,-0.0399,-0.0391,-0.035,-0.0358,-0.0334,-0.0295,-0.0277,-0.0267,-0.0192,-0.0156,-0.0112,-0.0114,-0.0095,-0.0063,-0.0091,-0.0051,-0.0048,-0.0045,-0.0001,0.0007,-0.0079,-0.0079,-0.0079,-0.0078,0,-0.0447,-0.0454,-0.046,-0.0453,-0.0439,-0.0439,-0.0401,-0.0385,-0.0359,-0.0327,-0.0285,-0.0231,-0.0183,-0.0167,-0.0142,-0.0101,-0.0085,-0.0067,-0.0045,-0.0046,0.0,0.0009,-0.0083,-0.0082,-0.0081,-0.0081,0,0,-0.0488,-0.0486,-0.049,-0.0495,-0.0467,-0.046,-0.0444,-0.0414,-0.0398,-0.0354,-0.0326,-0.027,-0.0233,-0.0203,-0.016,-0.0114,-0.0068,-0.0087,-0.0083,-0.0052,0.0041,0.0064,0.0077,-0.0045,-0.0044,-0.0042,0.0063,0,-0.0527,-0.0559,-0.0538,-0.0557,-0.0567,-0.052,-0.0507,-0.047,-0.0427,-0.0388,-0.032,-0.028,-0.0247,-0.0223,-0.0173,-0.0092,-0.0046,-0.0098,0.0044,0.0049,0.0064,0.0088,0.0063,0.0156,0.0072,0.0073,0.0075,0,-0.057,-0.0585,-0.0618,-0.061,-0.0608,-0.0607,-0.0569,-0.0551,-0.0479,-0.0444,-0.0383,-0.0325,-0.0248,-0.0225,-0.0086,-0.0123,-0.0049,0.0012,0.0018,0.0066,0.0089,0.0147,0.0176,0.009,0.0089,0.0088,0.0087,0,-0.0622,-0.0639,-0.0669,-0.0667,-0.0649,-0.0648,-0.0632,-0.0572,-0.0549,-0.0475,-0.0441,-0.0345,-0.0286,-0.0187,-0.0057,-0.007,0.0096,0.0099,0.019,0.0192,0.0214,0.0216,0.0194,0.0194,0.0194,0.0194,0.0193,0,-0.0673,-0.0695,-0.0699,-0.0714,-0.0738,-0.07,-0.07,-0.0665,-0.0605,-0.0573,-0.0475,-0.0414,-0.0273,-0.0157,-0.0057,0.0101,0.0104,0.0195,0.0227,0.0193,0.0192,0.0168,0.0164,0.0197,0.0197,0.0196,0.0195,0,-0.0726,-0.0731,-0.0764,-0.0764,-0.0767,-0.0784,-0.0758,-0.0751,-0.068,-0.0633,-0.061,-0.0454,-0.0294,-0.0148,0.0032,0.0113,0.0251,0.0304,0.0251,0.0275,0.0307,0.0299,0.0412,0.0414,0.0416,0.0417,0.0418,0,-0.0756,-0.0781,-0.0811,-0.0839,-0.0845,-0.0858,-0.0866,-0.0806,-0.0789,-0.065,-0.063,-0.0453,-0.032,-0.004,0.0137,0.0325,0.0316,0.0398,0.037,0.0313,0.0333,0.0322,0.0311,0.0376,0.0377,0.0377,0.0378,0,-0.0807,-0.0819,-0.0849,-0.0914,-0.0942,-0.0961,-0.0962,-0.0954,-0.087,-0.0803,-0.0673,-0.0546,-0.0243,-0.0012,0.0241,0.0339,0.0362,0.0415,0.0394,0.0318,0.0286,0.0303,0.0293,0.0383,0.0382,0.0382,0.0382,0.0381,-0.0841,-0.0886,-0.0934,-0.0988,-0.1026,-0.1059,-0.1063,-0.1035,-0.0995,-0.0849,-0.0746,-0.0506,-0.0272,0.0121,0.0287,0.0454,0.0444,0.0465,0.046,0.0456,0.0426,0.0398,0.051,0.051,0.051,0.051,0.0511,0,-0.0896,-0.0944,-0.1003,-0.1072,-0.1118,-0.1119,-0.1119,-0.1082,-0.1026,-0.0842,-0.0708,-0.0442,-0.0165,0.0112,0.0388,0.0515,0.0491,0.0525,0.0467,0.0461,0.0457,0.0424,0.0509,0.051,0.051,0.0511,0,0,-0.093,-0.1008,-0.1041,-0.1134,-0.1176,-0.1204,-0.1197,-0.1119,-0.0976,-0.0779,-0.0575,-0.0393,-0.0078,0.0092,0.0256,0.0417,0.0402,0.042,0.0405,0.0312,0.0306,0.0405,0.0348,0,0,0,0,0]}],[{"header":{"parameterUnit":"m.s-1","parameterCategory":2,"la1":30.2991,"la2":30.254,"lo1":-89.0895,"lo2":-89.0444,"dy":0.0017,"dx":0.0017,"nx":28,"ny":28,"refTime":"2024-07-20T09:00:00:Z","depth":"4","parameterNumber":2,"parameterNumberName":"U-component_of_CURRENTS"},"data":[0,0,0,0,0,0,0,0,0,0,0,0,0,0,0,0,0,0,0,0,0,0,0,0,0,0,0,0,0,0,0,0,0,0,0,0,0,0,0,0,0,0,0,0,0,0,0,0,0,0,0,0,0,0,0,0,0,0,-0.1521,-0.1522,0,-0.1578,-0.1578,-0.1579,-0.1606,-0.1606,-0.1606,-0.1606,-0.1645,-0.1646,-0.1646,0,0,0,0,0,0,0,0,0,0,0,0,0,-0.1442,-0.1443,-0.1521,-0.1522,-0.1523,-0.1577,-0.1578,-0.1579,-0.1606,-0.1606,-0.1606,-0.1606,-0.1644,-0.1645,-0.1646,0,0,0,0,0,0,0,0,0,0,0,0,0,-0.1484,-0.1443,-0.1521,-0.1544,-0.1547,-0.1577,-0.1578,-0.1579,-0.1606,-0.1606,-0.1606,-0.1607,-0.1644,-0.1645,-0.1647,-0.1652,0,0,-0.1651,-0.1651,0,0,0,0,0,0,0,0,-0.1481,-0.1486,-0.154,-0.1542,-0.1545,-0.1586,-0.1564,-0.1603,-0.1606,-0.1582,-0.1606,-0.1607,-0.1624,-0.1627,-0.1636,-0.1654,-0.1656,-0.1651,-0.1652,-0.1652,-0.1653,0,0,0,0,0,0,0,-0.1478,-0.1484,-0.1542,-0.154,-0.1544,-0.1553,-0.1559,-0.1572,-0.16,-0.1584,-0.1587,-0.1595,-0.1625,-0.1634,-0.1637,-0.1656,-0.1651,-0.1652,-0.1653,-0.1654,-0.1736,-0.1738,0,0,0,0,0,0,-0.1474,-0.1481,-0.154,-0.1544,-0.1514,-0.1554,-0.1561,-0.1572,-0.1601,-0.1606,-0.1595,-0.1596,-0.1632,-0.1635,-0.1638,-0.1698,-0.1652,-0.1654,-0.1655,-0.1735,-0.1737,-0.1738,0,0,0,0,0,0,-0.1472,-0.1478,-0.1538,-0.1515,-0.1523,-0.1556,-0.1568,-0.1573,-0.1605,-0.1609,-0.1613,-0.1625,-0.1632,-0.1636,-0.1675,-0.1697,-0.1654,-0.1656,-0.1733,-0.1735,-0.1737,-0.1784,0,0,0,0,0,0,-0.1469,-0.1477,-0.1497,-0.1515,-0.1524,-0.1573,-0.1568,-0.1574,-0.1609,-0.1612,-0.1636,-0.1638,-0.1633,-0.1673,-0.1677,-0.1699,-0.1657,-0.1732,-0.1734,-0.1737,-0.1781,-0.1787,-0.1793,0,0,0,0,0,-0.1466,-0.1488,-0.1498,-0.1506,-0.1546,-0.1574,-0.1581,-0.1603,-0.1611,-0.1632,-0.1651,-0.1638,-0.1691,-0.1676,-0.1679,-0.1702,-0.173,-0.1733,-0.1736,-0.1778,-0.1786,-0.1793,0,0,0,0,0,0,-0.1466,-0.1494,-0.1504,-0.1535,-0.1561,-0.158,-0.1606,-0.1618,-0.165,-0.166,-0.1659,-0.1664,-0.1704,-0.1701,-0.1683,-0.1734,-0.1708,-0.1712,-0.1738,-0.1745,-0.1752,-0.1741,-0.1658,0,0,0,0,0,-0.1474,-0.15,-0.1524,-0.1552,-0.1567,-0.1592,-0.1612,-0.1627,-0.165,-0.1666,-0.1683,-0.17,-0.1716,-0.173,-0.1743,-0.1775,-0.1749,-0.1791,-0.1798,-0.1803,-0.1798,-0.1791,-0.1796,-0.1748,-0.1748,-0.1748,0,0,-0.1483,-0.1502,-0.1518,-0.1554,-0.1577,-0.1606,-0.1605,-0.1643,-0.167,-0.1664,-0.1715,-0.1725,-0.173,-0.1764,-0.1781,-0.1767,-0.1802,-0.1807,-0.1811,-0.1803,-0.1795,-0.1799,-0.1803,-0.175,-0.175,-0.175,0,0,-0.1502,-0.1531,-0.1555,-0.158,-0.162,-0.1635,-0.1651,-0.1686,-0.1708,-0.1753,-0.1753,-0.1778,-0.1813,-0.1814,-0.1819,-0.1868,-0.1835,-0.1879,-0.1903,-0.1897,-0.19,-0.1903,-0.1865,-0.1864,-0.1882,-0.1882,-0.1882,0,-0.1514,-0.1544,-0.1568,-0.1597,-0.1622,-0.165,-0.1681,-0.1708,-0.1752,-0.1769,-0.1778,-0.1822,-0.1831,-0.1854,-0.1874,-0.188,-0.1862,-0.1873,-0.1903,-0.1905,-0.1907,-0.1868,-0.1866,-0.1885,-0.1884,-0.1884,-0.1884,0,-0.154,-0.1577,-0.1596,-0.164,-0.1671,-0.1705,-0.1739,-0.1775,-0.1806,-0.1825,-0.1867,-0.188,-0.19,-0.1912,-0.1911,-0.1933,-0.191,-0.191,-0.188,-0.1914,-0.1871,-0.1868,-0.1888,-0.1888,-0.1887,-0.1886,0,0,-0.1527,-0.16,-0.1608,-0.1637,-0.1697,-0.172,-0.1772,-0.1814,-0.1842,-0.1885,-0.1913,-0.1947,-0.1952,-0.1957,-0.1958,-0.1957,-0.1956,-0.1946,-0.1945,-0.19,-0.1923,-0.1788,-0.1771,-0.1967,-0.1967,-0.1967,-0.1883,0,-0.154,-0.1596,-0.1631,-0.169,-0.1721,-0.1766,-0.1808,-0.1852,-0.1887,-0.1922,-0.1937,-0.1966,-0.1969,-0.1982,-0.1985,-0.1968,-0.1953,-0.1977,-0.1903,-0.19,-0.1769,-0.1765,-0.1968,-0.188,-0.1879,-0.1879,-0.1879,0,-0.1543,-0.1582,-0.164,-0.1712,-0.1731,-0.1773,-0.1835,-0.1876,-0.1926,-0.1953,-0.1981,-0.1992,-0.2006,-0.2002,-0.1978,-0.1996,-0.1962,-0.194,-0.1936,-0.179,-0.176,-0.1842,-0.1873,-0.1873,-0.1874,-0.1874,-0.1874,0,-0.1502,-0.1584,-0.1631,-0.1657,-0.1743,-0.178,-0.1827,-0.1887,-0.1916,-0.197,-0.1985,-0.2009,-0.2009,-0.1994,-0.1956,-0.1973,-0.1906,-0.192,-0.1758,-0.1747,-0.1874,-0.1872,-0.1887,-0.1887,-0.1887,-0.1887,-0.1887,0,-0.1482,-0.1521,-0.1622,-0.1645,-0.1694,-0.1768,-0.1819,-0.1865,-0.1925,-0.1933,-0.1996,-0.1981,-0.201,-0.1977,-0.195,-0.1827,-0.1897,-0.1743,-0.1714,-0.1895,-0.1897,-0.1871,-0.187,-0.1884,-0.1885,-0.1885,-0.1886,0,-0.1417,-0.1489,-0.1542,-0.1643,-0.1677,-0.1709,-0.1802,-0.1825,-0.1901,-0.1909,-0.1925,-0.1959,-0.1896,-0.1889,-0.184,-0.1786,-0.1709,-0.1647,-0.1814,-0.1799,-0.1555,-0.1558,-0.1453,-0.1448,-0.1443,-0.1439,-0.1436,0,-0.1384,-0.141,-0.1518,-0.1543,-0.1591,-0.1658,-0.1692,-0.1793,-0.1806,-0.1861,-0.1838,-0.1819,-0.1811,-0.1626,-0.1648,-0.1559,-0.1544,-0.151,-0.1555,-0.1527,-0.151,-0.1521,-0.153,-0.1429,-0.1427,-0.1426,-0.1425,0,-0.1304,-0.1357,-0.1395,-0.1446,-0.1493,-0.1532,-0.159,-0.159,-0.1674,-0.1768,-0.1692,-0.1647,-0.1558,-0.1507,-0.144,-0.1391,-0.1546,-0.1461,-0.1471,-0.1513,-0.1496,-0.1486,-0.1501,-0.1409,-0.1411,-0.1413,-0.1413,0,-0.1236,-0.1238,-0.129,-0.1317,-0.137,-0.1363,-0.1425,-0.143,-0.1458,-0.1541,-0.1502,-0.1485,-0.1523,-0.1414,-0.1358,-0.129,-0.1274,-0.1264,-0.1284,-0.1303,-0.1293,-0.1251,-0.1044,0,0,0,0,0,-0.1151,-0.1132,-0.1153,-0.1168,-0.1215,-0.1237,-0.1324,-0.1389,-0.1482,-0.1385,-0.1444,-0.1355,-0.1262,-0.1266,-0.1155,-0.127,-0.1273,-0.1139,-0.1272,-0.1319,-0.1338,-0.1341,0,0,0,0,0,0,-0.1087,-0.1098,-0.1099,-0.1024,-0.101,-0.1035,-0.1083,-0.116,-0.1124,-0.1231,-0.1178,-0.1271,-0.1188,-0.1274,-0.1118,-0.1118,-0.1176,-0.1152,-0.1149,-0.1308,-0.1325,-0.134,-0.135,0,0,0,0,0]},{"header":{"parameterUnit":"m.s-1","parameterCategory":2,"la1":30.2991,"la2":30.254,"lo1":-89.0895,"lo2":-89.0444,"dy":0.0017,"dx":0.0017,"nx":28,"ny":28,"refTime":"2024-07-20T09:00:00:Z","depth":"4","parameterNumber":3,"parameterNumberName":"V-component_of_CURRENTS"},"data":[0,0,0,0,0,0,0,0,0,0,0,0,0,0,0,0,0,0,0,0,0,0,0,0,0,0,0,0,0,0,0,0,0,0,0,0,0,0,0,0,0,0,0,0,0,0,0,0,0,0,0,0,0,0,0,0,0,0,-0.0203,-0.0203,0,-0.0159,-0.0159,-0.0158,-0.0134,-0.0134,-0.0134,-0.0134,-0.0066,-0.0064,-0.0062,0,0,0,0,0,0,0,0,0,0,0,0,0,-0.0241,-0.024,-0.0203,-0.0203,-0.0202,-0.0159,-0.0159,-0.0158,-0.0134,-0.0134,-0.0134,-0.0134,-0.0066,-0.0064,-0.0062,0,0,0,0,0,0,0,0,0,0,0,0,0,-0.0213,-0.024,-0.0204,-0.0185,-0.0183,-0.016,-0.0159,-0.0158,-0.0134,-0.0134,-0.0134,-0.0133,-0.0067,-0.0064,-0.0062,-0.0047,0,0,-0.0054,-0.0052,0,0,0,0,0,0,0,0,-0.0215,-0.0212,-0.0188,-0.0186,-0.0184,-0.0152,-0.0147,-0.012,-0.0134,-0.0152,-0.0134,-0.0133,-0.0093,-0.0088,-0.008,-0.0044,-0.0041,-0.0053,-0.0052,-0.0051,-0.005,0,0,0,0,0,0,0,-0.0217,-0.0213,-0.0186,-0.0188,-0.0185,-0.017,-0.0167,-0.0142,-0.0123,-0.0151,-0.0149,-0.0144,-0.0091,-0.0082,-0.0078,-0.004,-0.0053,-0.0051,-0.0049,-0.0048,0.0019,0.0019,0,0,0,0,0,0,-0.0224,-0.0215,-0.0187,-0.0184,-0.02,-0.017,-0.0166,-0.0162,-0.0123,-0.0118,-0.0144,-0.0143,-0.0087,-0.0081,-0.0075,-0.0056,-0.0051,-0.0048,-0.0047,0.0019,0.0019,0.0019,0,0,0,0,0,0,-0.0225,-0.0222,-0.0189,-0.0199,-0.0194,-0.017,-0.0166,-0.0161,-0.0156,-0.0119,-0.0113,-0.0144,-0.0087,-0.0079,-0.0056,-0.0053,-0.0047,-0.0045,0.0019,0.0019,0.0019,-0.0016,0,0,0,0,0,0,-0.0226,-0.0223,-0.0226,-0.02,-0.0193,-0.0179,-0.0166,-0.0161,-0.0153,-0.0152,-0.0116,-0.011,-0.0086,-0.006,-0.0053,-0.0049,-0.0042,0.0018,0.0019,0.0019,-0.0015,-0.0017,-0.0018,0,0,0,0,0,-0.0228,-0.0231,-0.0227,-0.0223,-0.0198,-0.018,-0.0175,-0.0157,-0.0154,-0.0152,-0.0128,-0.0111,-0.0052,-0.0058,-0.005,-0.0045,0.0018,0.0019,0.0019,-0.0014,-0.0016,-0.0018,0,0,0,0,0,0,-0.0247,-0.0228,-0.0223,-0.022,-0.0204,-0.0176,-0.0174,-0.0162,-0.0143,-0.0143,-0.0109,-0.0101,-0.0081,-0.0057,-0.0064,-0.0024,-0.0014,-0.0012,-0.0042,-0.0043,-0.0045,-0.0052,-0.004,0,0,0,0,0,-0.0254,-0.0254,-0.0231,-0.023,-0.0224,-0.0202,-0.0194,-0.0182,-0.016,-0.0152,-0.0126,-0.0098,-0.0072,-0.0055,-0.0031,-0.0007,0.0017,0.0002,0.0,-0.0002,-0.0001,0.0039,0.0041,0.0021,0.0021,0.0021,0,0,-0.0262,-0.0252,-0.0252,-0.0235,-0.0223,-0.0216,-0.0197,-0.0189,-0.0181,-0.0147,-0.0131,-0.0107,-0.0069,-0.0045,-0.0033,-0.0024,0.0015,-0.0001,-0.0003,-0.0002,0.004,0.0042,0.0044,0.0021,0.0021,0.0021,0,0,-0.0279,-0.027,-0.0276,-0.0264,-0.0249,-0.0233,-0.0233,-0.0208,-0.0196,-0.0178,-0.0151,-0.0123,-0.0087,-0.0053,-0.0033,-0.0027,-0.0,-0.0023,-0.003,0.0009,0.0011,0.0013,0.0038,0.0042,-0.0017,-0.0017,-0.0017,0,-0.0291,-0.0294,-0.0275,-0.0275,-0.027,-0.0243,-0.0247,-0.0227,-0.0197,-0.0185,-0.0179,-0.0119,-0.0087,-0.0048,-0.0045,-0.003,-0.0012,-0.0027,0.0007,0.0009,0.0012,0.0037,0.0042,-0.0019,-0.0019,-0.0019,-0.0019,0,-0.0307,-0.0313,-0.0315,-0.0308,-0.0297,-0.0297,-0.0268,-0.0256,-0.024,-0.0216,-0.0183,-0.0138,-0.01,-0.0084,-0.0062,-0.0026,-0.0021,-0.0007,0.0009,0.0012,0.0038,0.0044,-0.0021,-0.0021,-0.002,-0.002,0,0,-0.0332,-0.0329,-0.0333,-0.0341,-0.0317,-0.0313,-0.0297,-0.0274,-0.0267,-0.0229,-0.0212,-0.0156,-0.0132,-0.0106,-0.0071,-0.0031,0.0004,-0.0014,-0.0011,0.0005,0.0078,0.0063,0.0069,0.0022,0.0023,0.0023,0.0085,0,-0.0355,-0.0377,-0.036,-0.0376,-0.0384,-0.0353,-0.0342,-0.0315,-0.0286,-0.026,-0.0202,-0.0174,-0.0139,-0.0125,-0.0078,-0.0018,0.002,-0.0015,0.0078,0.0081,0.0063,0.0076,0.0027,0.009,0.0092,0.0093,0.0094,0,-0.0379,-0.0392,-0.0418,-0.042,-0.042,-0.0421,-0.0404,-0.0389,-0.0337,-0.0313,-0.0264,-0.022,-0.0153,-0.013,-0.0018,-0.0045,0.0011,0.006,0.0064,0.0067,0.0078,0.0091,0.0106,0.0105,0.0104,0.0103,0.0102,0,-0.0418,-0.0432,-0.046,-0.046,-0.0453,-0.0459,-0.0452,-0.0412,-0.0401,-0.0347,-0.0329,-0.0246,-0.0204,-0.0119,-0.0015,-0.0018,0.0102,0.0114,0.0154,0.0153,0.0163,0.016,0.0189,0.0189,0.0189,0.0189,0.0189,0,-0.0448,-0.0472,-0.0488,-0.0503,-0.0536,-0.0509,-0.0526,-0.0501,-0.0462,-0.0449,-0.0365,-0.0326,-0.02,-0.0113,-0.0024,0.0083,0.0099,0.0154,0.0172,0.0145,0.014,0.0167,0.0164,0.0191,0.0191,0.019,0.019,0,-0.0486,-0.0495,-0.0533,-0.0548,-0.0559,-0.0584,-0.0587,-0.0591,-0.0543,-0.0521,-0.0506,-0.0383,-0.0265,-0.0141,0.0004,0.0067,0.0172,0.0204,0.0158,0.0172,0.0196,0.019,0.0253,0.0253,0.0253,0.0253,0.0253,0,-0.0506,-0.0531,-0.058,-0.0616,-0.063,-0.0662,-0.0682,-0.0645,-0.064,-0.0552,-0.0541,-0.0418,-0.033,-0.0132,-0.0,0.0162,0.0185,0.0227,0.0222,0.0193,0.0205,0.0199,0.0193,0.0253,0.0253,0.0253,0.0253,0,-0.0545,-0.0569,-0.0604,-0.068,-0.0723,-0.0757,-0.0776,-0.0772,-0.0718,-0.0675,-0.0566,-0.0441,-0.0304,-0.0137,-0.0012,0.0107,0.0193,0.0228,0.0229,0.0224,0.0195,0.0204,0.0199,0.0254,0.0254,0.0254,0.0254,0,-0.0579,-0.0622,-0.0676,-0.0736,-0.0797,-0.0832,-0.0832,-0.0807,-0.0782,-0.0671,-0.0636,-0.0462,-0.0354,-0.0165,-0.0045,0.0066,0.0095,0.0117,0.0124,0.0126,0.0071,0.0014,0.0035,0,0,0,0,0,-0.0609,-0.0662,-0.0727,-0.0793,-0.0849,-0.0876,-0.0885,-0.0868,-0.0811,-0.0748,-0.0687,-0.0553,-0.0337,-0.0225,-0.0117,-0.0057,0.0099,0.007,0.0124,0.0255,0.0254,0.0211,0,0,0,0,0,0,-0.0636,-0.0707,-0.0735,-0.082,-0.0868,-0.0922,-0.0925,-0.0887,-0.0835,-0.0758,-0.0637,-0.0549,-0.0336,-0.0407,-0.0122,-0.0083,-0.0039,0.0183,0.0185,0.0255,0.0254,0.0254,0.021,0,0,0,0,0]}]]